Meteo Giornale » Osservazioni meteo India » Agartala
ore: 20:30 - Osservazioni Meteo Agartala
Lat. 23° 53' N Lon. 91° 15' E Alt. 15 metri s.l.m.
27 °C
Foschia
Temp. 24 Ore
26 °C
33 °C
Est
9.3 Km/h
Dew point 26 °C
Umidità 94 %
Visibilità 4 Km
Il sole sorge alle ore 05:06
Il sole tramonta alle ore 17:43
| Data e Ora | Cielo e Fenomeni | T °C | DP °C | Um. % | Pres. hPa | Vis. km | Vento km/h | |
|---|---|---|---|---|---|---|---|---|
| Ieri h: 20:30 | Foschia | 27 | 26 | 94 | 1003 | 4 | E 9.3 | |
| Ieri h: 20:00 | Foschia | 28 | 26 | 88 | 1003 | 5 | E/SE 11.1 | |
| Ieri h: 19:30 | Foschia | 28 | 27 | 94 | 1003 | 5 | E/SE 11.1 | |
| Ieri h: 19:00 | Foschia | 28 | 27 | 94 | 1002 | 5 | E/SE 7.4 | |
| Ieri h: 18:30 | Foschia | 28 | 26 | 88 | 1002 | 5 | SE 9.3 | |
| Ieri h: 18:00 | Pioggia | 28 | 26 | 88 | 1002 | 5 | E/SE 7.4 | |
| Ieri h: 17:30 | Pioggia | 29 | 26 | 83 | 1001 | 5 | E/SE 7.4 | |
| Ieri h: 17:00 | Pioggia | 29 | 27 | 89 | 1000 | 5 | N 5.5 | |
| Ieri h: 16:30 | Pioggia | 29 | 27 | 89 | 1000 | 5 | E/SE 7.4 | |
| Ieri h: 16:00 | Foschia | 29 | 27 | 89 | 1000 | 5 | E/SE 11.1 | |
| Ieri h: 15:30 | Foschia | 32 | 27 | 74 | 1000 | 5 | SE 18.5 | |
| Ieri h: 15:00 | Foschia | 32 | 27 | 74 | 999 | 5 | S/SE 11.1 | |
| Ieri h: 14:30 | Pioggia | 33 | 27 | 70 | 1000 | 5 | E 11.1 | |
| Ieri h: 14:00 | Foschia | 33 | 26 | 66 | 1000 | 5 | E 11.1 | |
| Ieri h: 13:30 | Foschia | 33 | 26 | 66 | 1000 | 5 | S/SE 9.3 | |
| Ieri h: 13:00 | Foschia | 33 | 26 | 66 | 1001 | 5 | E/SE 7.4 | |
| Ieri h: 12:30 | Foschia | 33 | 26 | 66 | 1001 | 5 | SE 13 | |
| Ieri h: 12:00 | Foschia | 33 | 26 | 66 | 1002 | 5 | SE 16.7 | |
| Ieri h: 11:30 | Foschia | 32 | 26 | 70 | 1002 | 5 | E/SE 13 | |
| Ieri h: 11:00 | Foschia | 32 | 25 | 66 | 1003 | 5 | S/SE 16.7 | |
| Ieri h: 10:30 | Foschia | 32 | 25 | 66 | 1003 | 5 | SE 13 | |
| Ieri h: 10:00 | Foschia | 31 | 25 | 70 | 1003 | 5 | SE 9.3 | |
| Ieri h: 09:30 | Foschia | 31 | 25 | 70 | 1003 | 5 | E/SE 9.3 | |
| Ieri h: 09:00 | Foschia | 31 | 25 | 70 | 1003 | 5 | E/SE 14.8 | |
| Ieri h: 08:30 | Foschia | 30 | 25 | 74 | 1003 | 5 | E/SE 11.1 | |
| Ieri h: 08:00 | Foschia | 29 | 26 | 83 | 1003 | 4 | E 11.1 | |
| Ieri h: 07:30 | Foschia | 28 | 26 | 88 | 1003 | 4 | E 11.1 | |
| Ieri h: 07:00 | Foschia | 28 | 26 | 88 | 1003 | 3 | E 7.4 | |
| Ieri h: 06:30 | Foschia | 27 | 25 | 88 | 1003 | 3 | E/NE 9.3 | |
| Ieri h: 05:30 | Foschia | 26 | 25 | 94 | 1003 | 3 | E 7.4 | |



